Portada
METAR-TAF:

METAR-TAF

Aeroports :

Chatham Municipal Airport

Chatham, Massachusetts, Estats Units d'Amèrica

latitud: 41-41-15N, longitud: 069-59-36W, altitud: 20 m

Observació

L'informe es va fer fa 25 minuts, a les 09:52 UTC
Vent calma
Temperatura 8°C
Humitat 93%
Pressió 1015 hPa
Visibilitat: 14.5 km
Cel clar

METAR: KCQX 290952Z AUTO 00000KT 9SM CLR 08/07 A2996 RMK AO2 SLP145 T00780067

Hora: 06:17 (10:17 UTC)


TAF: manca

Observacions i pronòstics meteorològics de més de 4000 aeroports (METAR i TAF).

Les estacions disponibles són els punts grocs i vermells al mapa.

Posi el ratolí al punt desitjat per veure el nom de l'estació.

Feu clic per veure les observacions i els pronòstics meteorològics.

Per canviar el mapa: feu clic els botons verds amb una creu de color negre per apropar; al botó verd amb un guió per allunyar la imatge; o en les fletxes verdes per a mapes adjacents.


METAR-TAF: